Regional Weather Roundup
Issued by NWS

Home | Current Version | Previous Version | Graphics & Text | Print | Product List | Glossary Off
Versions: 1 2 3 4 5 6 7 8 9 10 11 12 13 14 15 16 17 18 19 20 21 22 23 24 25 26 27 28 29 30 31 32 33 34 35 36 37 38 39 40 41 42 43 44 45 46 47 48 49 50

000
ASUS43 KMPX 191301
RWRMN
WEATHER ROUNDUP FOR MINNESOTA
NATIONAL WEATHER SERVICE TWIN CITIES/CHANHASSEN MN
800 AM CDT THU APR 19 2018


NOTE: "FAIR" INDICATES FEW OR NO CLOUDS BELOW 12,000 FEET WITH NO
SIGNIFICANT WEATHER AND/OR OBSTRUCTIONS TO VISIBILITY. N/A MEANS
CURRENT SKY AND/OR WEATHER CONDITIONS ARE NOT AVAILABLE.

MNZ060>063-068>070-191400-
   Twin Cities Metro

CITY           SKY/WX    TMP DP  RH WIND       PRES   REMARKS
TWIN CITIES    FAIR      33  18  53 N3        30.42R
ST PAUL        FAIR      28  18  66 W3        30.44R
CRYSTAL        FAIR      27  17  66 N3        30.41R
BLAINE         PTSUNNY   28  18  64 CALM      30.41R
LAKEVILLE      FAIR      28  18  64 NW3       30.41R
EDEN PRAIRIE   FAIR      33  15  47 N6        30.41R WCI  28
SOUTH ST PAUL  LGT SNOW  31  18  58 CALM      30.42R
LAKE ELMO      FAIR      23  16  74 CALM      30.42R
$$
MNZ001>005-007-008-013>017-022>024-027-028-191400-
   Northwest Minnesota

CITY           SKY/WX    TMP DP  RH WIND       PRES   REMARKS
BEMIDJI        FAIR      28  22  78 CALM      30.38S
HALLOCK        FAIR      34  27  75 SE3       30.38R
ROSEAU         FAIR      30  27  86 CALM      30.38S
WARROAD        FAIR      32  25  74 CALM      30.38S
THIEF RVR FALL FAIR      33  23  66 SE5       30.39R WCI  29
CROOKSTON      FAIR      32  27  80 CALM      30.40R
FOSSTON        FAIR      32  21  64 CALM      30.39R
DETROIT LAKES  FAIR      32  27  80 CALM      30.40R
MOORHEAD       FAIR      34  30  86 CALM      30.41R FOG
PARK RAPIDS    FAIR      28  22  78 CALM      30.38R
MAHNOMEN       FAIR      32  19  59 SE5       30.38R WCI  27
$$
MNZ006-009>011-018-025>026-191400-
   North Central Minnesota

CITY           SKY/WX    TMP DP  RH WIND       PRES   REMARKS
BAUDETTE       FAIR      28  25  88 CALM      30.38R
FLAG ISLAND    FAIR      27  19  74 CALM      30.38R
INTL FALLS     FAIR      30  23  75 CALM      30.39R
WASKISH        PTSUNNY   28  25  86 CALM      30.39R
BIG FORK       FAIR      27  16  63 CALM      30.38S
LONGVILLE      FAIR      27  21  80 CALM      30.39R
GRAND RAPIDS   FAIR      28  17  63 N3        30.40R
CRANE LAKE     FAIR      19  18  93 CALM      30.41R
ORR            FAIR      25  12  58 CALM      30.36R
COOK           FAIR      23  18  80 CALM      30.38R
WALKER         FAIR      29  19  65 W3        30.39R
$$
MNZ012-019>021-037-191400-
   Northeast Minnesota

CITY           SKY/WX    TMP DP  RH WIND       PRES   REMARKS
DULUTH         FAIR      32  16  51 NW3       30.38R
ELY            FAIR      25  18  74 CALM      30.37R
HIBBING        FAIR      29  21  72 CALM      30.38R
EVELETH        FAIR      28  23  80 CALM      30.38S
DULUTH HARBOR  FAIR      30  21  69 SW3       30.41R
TWO HARBORS    FAIR      37  19  48 NW3       30.36R
SILVER BAY     FAIR      28  19  69 CALM      30.35S
GRAND MARAIS     N/A     37  20  50 SW5       30.36R
G MARAIS ARPRT FAIR      30  10  43 N7        30.32S WCI  23
$$
MNZ029>031-032-039>041-046>048-054>057-064-191400-
   West Central Minnesota

CITY           SKY/WX    TMP DP  RH WIND       PRES   REMARKS
FERGUS FALLS   FAIR      32  27  80 S5        30.40R WCI  27
WHEATON        SUNNY     34  30  86 SW3       30.44R
MORRIS         SUNNY     36  25  64 S7        30.41R
ALEXANDRIA     FAIR      37  22  54 SW8       30.41R
ELBOW LAKE     FAIR      31  31  98 SW3       30.42R
WADENA         FAIR      25  21  86 CALM      30.40R
GLENWOOD       FAIR      32  25  74 SW6       30.42R WCI  26
APPLETON       SUNNY     30  28  93 CALM      30.43R
BENSON         CLOUDY    30  28  93 CALM      30.44R
ORTONVILLE     SUNNY     34  30  86 CALM      30.42R
MADISON        CLOUDY    28  27  93 CALM      30.42R
WILLMAR        FAIR      32  27  80 CALM      30.46R
$$
MNZ033>034-036-042>043-049>051-058-059-191400-
   Central Minnesota

CITY           SKY/WX    TMP DP  RH WIND       PRES   REMARKS
ST CLOUD       FAIR      32  22  66 CALM      30.41R
SAUK CENTRE    FAIR      29  26  89 CALM      30.42R
PAYNESVILLE    FAIR      31  28  90 CALM      30.43R
AITKIN         FAIR      32  19  59 CALM      30.38S
PINE RIVER     FAIR      27  21  80 CALM      30.42R
BRAINERD       FAIR      30  19  63 CALM      30.40R
STAPLES        FAIR      27  19  74 CALM      30.40R
LONG PRAIRIE   FAIR      28  23  80 CALM      30.41R
LITTLE FALLS     N/A    N/A N/A N/A CALM        N/A
LITCHFIELD     FAIR      30  21  69 CALM      30.43R
BUFFALO        FAIR      31  19  59 CALM      30.43R
MAPLE LAKE     FAIR      32  23  68 CALM      30.43R
HUTCHINSON     FAIR      25  20  80 CALM      30.43R
$$
MNZ037-044-045-052-053-191400-
   East Central Minnesota

CITY           SKY/WX    TMP DP  RH WIND       PRES   REMARKS
PRINCETON      FAIR      28  23  80 CALM      30.42R
MORA           FAIR      32  16  51 CALM      30.42S
RUSH CITY      FAIR      33  15  46 NW3       30.42R
MOOSE LAKE     FAIR      32  12  43 CALM      30.38R
HINCKLEY       FAIR      36  18  48 NW6       30.41R
CLOQUET        FAIR      32  14  47 NW5       30.38R WCI  27
MCGREGOR       FAIR      30  23  74 CALM      30.40R
$$
MNZ071>073-080-081-089-090-097-098-191400-
   Southwest Minnesota

CITY           SKY/WX    TMP DP  RH WIND       PRES   REMARKS
MONTEVIDEO     CLOUDY    34  28  80 CALM      30.44R
GRANITE FALLS  CLOUDY    28  24  85 CALM      30.45R
CANBY          CLOUDY    31  26  82 SW5       30.44R WCI  26
MARSHALL       CLOUDY    28  24  85 W5        30.44R WCI  23
REDWOOD FALLS  CLOUDY    32  19  58 CALM      30.43R
OLIVIA         CLOUDY    34  30  86 CALM      30.43R
PIPESTONE      CLOUDY   N/A N/A N/A CALM      30.41R
WINDOM           N/A     21   3  45 W5        30.42R WCI  15
WORTHINGTON    CLOUDY    22  13  68 NW6       30.42R WCI  14
JACKSON        CLOUDY    19  12  73 W3        30.42R
TRACY          CLOUDY    28  20  74 CALM      30.42R
SLAYTON        CLOUDY    18  14  85 NW6       30.42R WCI   9
$$
MNZ065>067-074>077-082>085-091>093-191400-
   South Central Minnesota

CITY           SKY/WX    TMP DP  RH WIND       PRES   REMARKS
MANKATO        FAIR      27  18  69 NW3       30.43R
NEW ULM        CLOUDY    28  16  59 CALM      30.43R
ST JAMES       CLOUDY    19  12  73 W3        30.44R
FAIRMONT       CLOUDY    23  15  71 N8        30.43R WCI  14
GLENCOE        FAIR      29  18  64 NW3       30.42R
OWATONNA       FAIR      16  16 100 CALM      30.40R
WASECA         FAIR      23  16  74 N8        30.42R WCI  14
ALBERT LEA     FAIR      23  14  68 N3        30.40R
$$
MNZ078>079-086>088-094>096-191400-
   Southeast Minnesota

CITY           SKY/WX    TMP DP  RH WIND       PRES   REMARKS
ROCHESTER      FAIR      20  15  81 NW9       30.38R WCI   9
RED WING       FAIR      28  16  59 CALM      30.41R
STANTON        FAIR      20  16  83 S3        30.40R
DODGE CENTER   FAIR      27  16  63 NW8       30.39R WCI  18
WINONA         FAIR      25  23  93 NW5       30.39R WCI  19
AUSTIN         FAIR      21  16  79 N7        30.39R WCI  13
PRESTON        FAIR      24  16  72 NW7       30.38R WCI  16
$$
ABBREVIATIONS USED IN REMARKS
   TC - TEMPERATURES IN CELSIUS
  WCI - WIND CHILL INDEX
   HX - HEAT INDEX
  VSB - VISIBILITY
$$




USA.gov is the U.S. government's official web portal to all federal, state and local government web resources and services.